Campo, CA

6:08 AM PDT on July 23, 2019 (GMT -0700)
Campo

Weather History for KCZZ - May, 2019

Change the Weather History Date:

Tuesday, May 21, 2019

  Actual Average Record
Temperature  
Mean Temperature 51 °F 62 °F  
Max Temperature 55 °F 81 °F 97 °F (1967)
Min Temperature 46 °F 42 °F 29 °F (1970)
Degree Days  
Heating Degree Days 14 4  
Month to date heating degree days 187 119  
Since 1 July heating degree days 2905 2887  
Cooling Degree Days 0 1  
Month to date cooling degree days 0 16  
Year to date cooling degree days 2 19  
Moisture  
Dew Point 44 °F    
Average Humidity 79    
Maximum Humidity 93    
Minimum Humidity 64    
Precipitation  
Precipitation 0.00 in 0.00 in 0.53 in (1957)
Month to date precipitation 1.14 0.15  
Year to date precipitation 12.33 10.01  
Sea Level Pressure  
Sea Level Pressure 29.82 in    
Wind  
Wind Speed 16 mph (WSW)    
Max Wind Speed 25 mph    
Max Gust Speed 35 mph    
T = Trace of Precipitation, MM = Missing Value Source: NWS Daily Summary

Daily Weather History Graph

Daily Weather History Graph

Search for Another Location

Airport or City:

Astronomy

May. 21, 2019 Rise Set
Actual Time 5:43 AM PDT 7:41 PM PDT
Civil Twilight 5:16 AM PDT 8:09 PM PDT
Nautical Twilight 4:42 AM PDT 8:42 PM PDT
Astronomical Twilight 4:07 AM PDT 9:18 PM PDT
Moon 10:38 PM PDT (5/21) 8:05 AM PDT (5/21)
Length of Visible Light 14h 52m
Length of Day
13h 57m
Waning Gibbous, 91% of the Moon is Illuminated
May 21
Waning Gibbous
May 26
Last Quarter
Jun 3
New
Jun 9
First Quarter
Jun 17
Full

Hourly Weather History & Observations

Time (PDT) Temp. Windchill Dew Point Humidity Pressure Visibility Wind Dir Wind Speed Gust Speed Precip Events Conditions
12:52 AM 46.9 °F - 43.0 °F 86% 29.91 in - SW 3.5 mph - N/A   Unknown
1:52 AM 46.9 °F - 43.0 °F 86% 29.90 in - SSW 6.9 mph - N/A   Unknown
2:52 AM 46.9 °F - 44.1 °F 90% 29.88 in - SW 11.5 mph - N/A   Unknown
3:52 AM 46.9 °F - 43.0 °F 86% 29.87 in - SW 12.7 mph - N/A   Unknown
4:52 AM 46.0 °F 39.3 °F 42.1 °F 86% 29.86 in - SW 16.1 mph - N/A   Unknown
5:52 AM 46.9 °F - 43.0 °F 86% 29.86 in - WSW 16.1 mph - N/A   Unknown
6:52 AM 46.9 °F - 43.0 °F 86% 29.88 in - SW 13.8 mph - N/A   Unknown
7:52 AM 48.9 °F - 44.1 °F 83% 29.88 in - WSW 12.7 mph - N/A   Unknown
8:52 AM 48.0 °F - 45.0 °F 89% 29.88 in - SW 13.8 mph - N/A   Unknown
9:52 AM 51.1 °F - 45.0 °F 80% 29.87 in - WSW 13.8 mph 21.9 mph N/A   Unknown
10:52 AM 52.0 °F - 46.0 °F 80% 29.86 in - SW 15.0 mph 25.3 mph N/A   Unknown
11:52 AM 53.1 °F - 44.1 °F 71% 29.85 in - WSW 18.4 mph 27.6 mph N/A   Unknown
12:52 PM 53.1 °F - 41.0 °F 64% 29.83 in - WSW 24.2 mph 32.2 mph N/A   Unknown
1:52 PM 53.1 °F - 43.0 °F 69% 29.82 in - SW 23.0 mph 31.1 mph N/A   Unknown
2:52 PM 53.1 °F - 43.0 °F 69% 29.80 in - SW 24.2 mph 29.9 mph N/A   Unknown
3:52 PM 51.1 °F - 46.9 °F 86% 29.78 in - WSW 20.7 mph 27.6 mph N/A   Unknown
4:52 PM 52.0 °F - 46.9 °F 83% 29.75 in - WSW 17.3 mph - N/A   Unknown
5:52 PM 50.0 °F - 44.1 °F 80% 29.74 in - West 20.7 mph 32.2 mph N/A   Unknown
6:52 PM 48.9 °F - 42.1 °F 77% 29.74 in - WSW 17.3 mph 29.9 mph N/A   Unknown
7:52 PM 48.0 °F - 43.0 °F 83% 29.73 in - WSW 21.9 mph 31.1 mph N/A   Unknown
8:52 PM 46.9 °F - 44.1 °F 90% 29.73 in - West 25.3 mph 31.1 mph 0.02 in   Unknown
9:52 PM 46.9 °F - 43.0 °F 86% 29.75 in - WSW 16.1 mph 26.5 mph N/A   Unknown
10:52 PM 46.9 °F - 43.0 °F 86% 29.73 in - SW 19.6 mph 26.5 mph N/A   Unknown
11:52 PM 46.9 °F - 44.1 °F 90% 29.71 in - WSW 21.9 mph 29.9 mph N/A   Unknown